Location: Crocus Hill
(18.2167°N, 63.0667°W)
Time: 19:58:46
(UTC+00:00)

SEDSat Delta rocket - Pass Details

Date: 26 January 2020
Orbit: 533 x 1000 km, 31.4° (Epoch: 19 February)

Event Time Altitude Azimuth Distance (km) Brightness Sun altitude
Exits shadow 10:16:59 - 298° (WNW) 2,787 5.7 -7.5°
Reaches altitude 10° 10:17:26 10° 298° (WNW) 2,625 5.6 -7.4°
Maximum altitude 10:23:48 86° 28° (NNE) 856 3.8 -6.0°
Drops below altitude 10° 10:29:21 10° 116° (ESE) 2,311 7.8 -4.7°
Sets 10:31:40 0° 117° (ESE) 3,162 9.1 -4.2°
